sat.trackr.live / text

‹ back to catalog

STARLINK-5620

NORAD 55414 · 2023-014Z

PAYLOAD ACTIVE UNKNOWN

§ Identity

Operator
Country
US
Launch date
2023-01-31
Launch site
AFWTR
Launch vehicle
Mass (kg)
RCS (m²)

Purposes: comms

External: N2YO · Heavens-Above · Gunter

§ Orbital elements

Epoch: 2026-05-24T17:22:32.837088Z

Period
96.11 min
Inclination
69.9992°
Eccentricity
0.0003628
Mean motion
14.98339663 rev/d
Perigee alt
569.5 km
Apogee alt
574.5 km
Semi-major
6,950.2 km
B*
1.2006e-4
RAAN
252.6510°
Arg perigee
270.0089°
Mean anomaly
90.0655°
Rev number
18,295

§ Raw data

STARLINK-56201 55414U 23014Z   26144.72399117  .00001340  00000+0  12006-3 0  99942 55414  69.9992 252.6510 0003628 270.0089  90.0655 14.98339663182953

JSON: /api/v1/satellites/55414 · /tle

For live sub-satellite position, see the globe view (requires WebGL).

§ Visibility from observer

Set your observer location to see the next 7 days of passes ≥ 10°. The values pass through the URL so the page stays shareable.

No JS? Fill the form by hand. The geolocation button needs JavaScript.